Temperature
2 3 4 3 3 3 3 3 3 4 4 4 4 4 4 4 4 4 3 3 3 3 3 3 3 4 4 4 4 4 4 5 5 5 5 5 5 5 5 5 5 5 5 5
1 3 3 3 2 3 3 3 3 4 3 3 4 4 3 3 3 2 2 2 2 2 2 2 3 3 3 3 3 4 4 4 4 4 4 5 5 5 5 5 5 5 5 4
1 2 2 1 1 2 2 2 3 3 2 3 2 2 2 2 2 1 1 1 1 1 1 1 2 2 2 2 3 3 3 3 3 3 4 4 4 4 4 4 4 4 4 4
1 1 1 1 1 2 1 1 1 1 1 2 1 1 1 1 1 0 0 0 0 1 1 1 1 1 1 2 2 2 2 2 2 3 3 3 3 3 3 3 3 3 3 3
0 1 1 1 1 0 0 -0 0 0 1 1 1 1 0 0 -0 -0 -0 -0 -0 0 -0 -0 0 0 1 1 1 1 2 2 2 2 2 2 2 2 2 2 2 2 2 2
0 0 1 1 -0 -0 -0 -1 -1 -0 -1 -0 0 -0 -1 -1 -1 -1 -1 -1 -1 -0 -0 -0 -0 -0 -0 0 0 1 1 1 1 1 1 1 1 2 1 1 1 1 1 1
-1 -0 -0 -1 -1 -0 -0 -1 -1 -1 -1 -1 -2 -2 -2 -2 -2 -2 -1 -1 -1 -1 -1 -1 -1 -1 -1 -0 -0 -0 -0 0 0 0 0 0 1 1 1 1 1 1 1 1
-1 -1 -1 -1 -1 -2 -2 -1 -1 -1 -2 -2 -2 -2 -3 -3 -2 -2 -2 -2 -2 -2 -2 -2 -2 -1 -1 -1 -1 -1 -1 -0 -0 -0 -0 -0 -0 -0 -0 0 0 0 0 0
-2 -1 -1 -1 -1 -1 -1 -2 -2 -2 -2 -2 -3 -3 -3 -3 -3 -3 -3 -3 -3 -2 -3 -2 -2 -2 -2 -2 -2 -2 -1 -1 -1 -1 -1 -1 -1 -1 -1 -1 -1 -1 -1 -0
-3 -2 -1 -1 -1 -1 -2 -2 -2 -2 -3 -3 -3 -3 -4 -4 -4 -3 -3 -3 -3 -3 -3 -3 -3 -3 -3 -3 -2 -2 -2 -2 -2 -2 -1 -1 -1 -1 -1 -1 -1 -1 -1 -1
-4 -3 -2 -2 -2 -2 -2 -2 -3 -3 -3 -3 -4 -4 -4 -4 -4 -4 -4 -4 -4 -4 -4 -4 -4 -3 -3 -3 -3 -3 -3 -2 -2 -2 -2 -2 -2 -2 -2 -2 -2 -2 -2 -2
-3 -2 -3 -2 -2 -2 -3 -3 -3 -3 -3 -4 -4 -4 -4 -4 -5 -5 -5 -4 -5 -5 -4 -4 -4 -4 -4 -3 -3 -3 -3 -3 -3 -3 -3 -3 -3 -3 -3 -2 -2 -2 -2 -2
-2 -2 -2 -2 -3 -3 -3 -3 -4 -4 -4 -4 -4 -5 -5 -5 -5 -5 -5 -5 -5 -5 -5 -4 -4 -4 -4 -4 -4 -3 -3 -3 -3 -3 -3 -3 -3 -3 -3 -3 -3 -3 -3 -3
-2 -3 -3 -3 -3 -3 -4 -4 -4 -4 -5 -5 -5 -5 -5 -5 -5 -5 -5 -5 -5 -5 -5 -5 -4 -4 -4 -4 -4 -4 -4 -4 -4 -4 -4 -4 -4 -4 -3 -3 -3 -3 -3 -3
-3 -3 -4 -4 -4 -4 -4 -4 -5 -5 -5 -5 -5 -5 -5 -6 -6 -5 -5 -5 -5 -5 -5 -5 -5 -4 -4 -4 -4 -4 -4 -4 -4 -4 -4 -4 -4 -4 -4 -4 -4 -4 -4 -3
-4 -4 -4 -4 -5 -5 -5 -5 -5 -5 -6 -6 -6 -6 -6 -6 -6 -6 -6 -5 -5 -5 -5 -5 -5 -5 -5 -5 -5 -5 -5 -5 -5 -5 -5 -5 -5 -5 -5 -5 -4 -4 -4 -4
-4 -5 -5 -5 -5 -5 -5 -5 -5 -6 -6 -6 -6 -6 -6 -6 -6 -6 -6 -6 -6 -6 -6 -5 -5 -5 -5 -5 -5 -5 -5 -5 -5 -5 -5 -5 -5 -5 -5 -5 -5 -5 -4 -4
-4 -4 -4 -4 -4 -5 -5 -5 -6 -6 -6 -6 -6 -6 -6 -6 -6 -6 -6 -6 -6 -6 -6 -6 -6 -5 -6 -5 -5 -5 -5 -5 -5 -5 -6 -6 -6 -6 -5 -5 -5 -5 -5 -5
-4 -4 -4 -4 -5 -5 -5 -5 -6 -6 -6 -6 -6 -6 -6 -6 -6 -6 -6 -6 -6 -6 -6 -6 -6 -6 -6 -6 -6 -5 -5 -6 -6 -6 -6 -6 -6 -6 -6 -6 -6 -5 -5 -5
-4 -4 -4 -5 -5 -5 -5 -6 -6 -6 -6 -6 -6 -6 -6 -6 -7 -7 -7 -7 -7 -7 -7 -6 -6 -6 -6 -6 -6 -6 -6 -6 -6 -6 -6 -6 -6 -6 -6 -6 -6 -6 -6 -6
-4 -5 -5 -5 -5 -6 -6 -6 -6 -6 -6 -6 -6 -6 -7 -7 -7 -7 -7 -7 -7 -7 -7 -7 -7 -7 -7 -7 -7 -6 -6 -6 -6 -6 -6 -6 -6 -6 -6 -6 -6 -6 -6 -6
-5 -5 -5 -5 -5 -6 -6 -6 -6 -6 -6 -7 -7 -7 -7 -7 -7 -7 -7 -7 -7 -7 -7 -7 -7 -7 -7 -7 -7 -7 -7 -7 -7 -7 -7 -7 -6 -6 -6 -6 -6 -6 -6 -6
-5 -5 -5 -5 -6 -6 -6 -6 -6 -7 -7 -7 -7 -7 -7 -7 -8 -8 -8 -7 -8 -8 -8 -7 -7 -7 -7 -7 -7 -7 -7 -7 -7 -7 -7 -7 -7 -7 -7 -7 -7 -7 -7 -7
-5 -5 -6 -6 -6 -6 -6 -7 -7 -7 -7 -7 -7 -7 -8 -8 -8 -8 -8 -8 -8 -8 -8 -8 -8 -8 -8 -8 -8 -7 -7 -7 -7 -7 -7 -7 -7 -7 -7 -7 -7 -7 -7 -7
-5 -6 -6 -6 -6 -6 -7 -7 -7 -7 -7 -7 -8 -8 -8 -8 -8 -8 -8 -8 -8 -8 -8 -8 -8 -8 -8 -8 -8 -8 -8 -8 -7 -7 -7 -7 -7 -7 -7 -7 -7 -7 -7 -7
-6 -6 -6 -6 -6 -7 -7 -7 -7 -7 -7 -8 -8 -8 -8 -8 -8 -8 -8 -8 -8 -8 -8 -8 -8 -8 -8 -8 -8 -8 -8 -8 -8 -7 -7 -7 -7 -7 -7 -7 -7 -7 -7 -7
-6 -6 -6 -7 -7 -7 -7 -7 -7 -8 -8 -8 -8 -8 -8 -8 -8 -8 -8 -8 -8 -8 -8 -8 -8 -8 -8 -8 -8 -8 -8 -8 -8 -8 -7 -7 -7 -7 -7 -7 -7 -7 -7 -7
Wind_Speed
7 8 6 6 6 5 5 5 4 4 4 5 4 4 5 5 5 5 5 5 5 5 5 4 3 3 3 2 2 2 3 3 2 2 2 2 3 3 3 3 3 3 3 3
5 6 5 6 7 7 7 6 6 6 5 5 3 3 5 6 5 5 5 5 5 5 5 5 4 3 3 3 2 2 3 2 3 3 2 2 2 3 3 3 2 2 3 3
3 4 4 4 5 5 3 3 3 4 4 4 5 5 5 5 5 4 4 5 4 4 4 4 4 3 3 2 2 2 2 3 3 3 2 2 2 3 3 3 2 2 2 3
3 4 4 3 1 1 2 2 2 2 3 4 4 4 4 4 4 4 4 4 4 4 4 4 3 3 2 2 2 1 2 3 3 2 2 2 2 3 2 2 2 2 2 3
2 3 5 2 0 1 1 2 2 2 4 4 4 3 3 5 6 5 4 4 4 3 3 3 3 3 3 2 2 2 2 2 2 2 2 2 2 2 2 2 2 2 2 2
3 3 4 2 0 1 1 2 2 2 2 4 4 2 3 5 5 5 5 4 3 3 3 3 3 3 2 2 2 2 1 2 2 2 2 2 2 1 1 2 2 2 2 2
5 4 5 1 0 1 2 4 1 1 2 2 2 2 3 4 4 4 4 4 3 3 2 2 2 2 2 2 2 2 2 2 2 1 1 1 1 1 1 2 2 2 2 2
3 4 6 1 2 2 3 1 1 2 2 2 3 2 3 3 3 4 4 4 4 3 3 3 2 2 2 1 2 2 2 2 2 1 1 2 2 1 1 2 3 2 2 2
5 6 2 3 2 2 1 2 2 2 2 2 3 3 3 3 3 3 3 3 3 3 3 3 2 1 1 2 1 1 1 1 1 2 1 1 1 1 1 2 2 2 2 1
4 6 4 3 3 2 1 2 2 2 2 2 2 3 3 3 3 2 3 3 3 2 3 3 3 2 1 1 1 0 1 1 1 1 1 1 1 1 1 1 2 2 1 1
5 5 4 4 3 1 1 2 2 2 2 2 2 2 3 3 3 2 2 2 2 2 2 3 3 2 1 1 0 0 0 0 1 1 1 1 1 1 1 1 2 2 2 1
6 4 3 3 0 0 1 2 2 2 2 2 2 2 2 2 2 2 2 2 2 2 3 3 2 2 2 1 0 1 1 0 0 1 1 1 1 1 2 1 1 1 1 1
4 1 1 1 1 1 1 2 2 1 2 2 2 2 2 2 1 1 2 2 2 3 3 3 3 3 2 1 1 1 1 1 1 1 1 1 1 1 1 1 2 1 1 1
3 1 2 2 2 1 1 2 2 2 1 1 1 1 1 1 1 1 2 2 2 2 3 3 2 3 2 1 1 1 1 1 1 1 1 1 1 1 1 1 1 0 0 1
4 4 3 1 1 1 1 1 1 1 1 1 1 1 1 1 2 2 3 2 2 2 2 2 2 3 2 1 1 1 1 1 1 1 1 1 1 1 1 1 1 0 0 0
2 2 2 2 2 2 1 1 2 2 1 1 1 1 1 1 2 2 2 2 2 2 2 2 2 2 2 1 1 1 1 2 1 1 1 1 1 1 1 1 1 1 0 0
4 4 4 4 3 3 3 3 2 2 1 1 2 1 1 1 1 2 2 2 2 2 2 2 2 2 2 1 1 1 1 2 2 2 1 1 1 1 1 1 1 0 0 1
5 4 4 4 4 3 3 2 2 2 2 2 1 1 1 1 1 2 2 2 2 3 3 2 2 2 1 1 1 1 1 2 2 2 2 2 1 1 1 1 1 1 0 0
4 4 3 3 3 3 2 2 2 2 1 1 1 1 2 2 1 1 1 2 2 3 3 2 3 2 1 1 0 1 2 2 2 2 2 2 1 1 1 1 1 0 0 0
3 3 3 2 2 2 2 2 1 1 1 1 1 1 1 2 1 1 1 2 2 2 2 3 2 1 1 1 1 1 2 2 2 2 2 2 2 1 1 1 1 1 0 0
4 3 3 2 2 2 2 2 1 1 1 1 1 1 2 2 1 1 1 2 3 2 2 3 2 1 0 0 0 1 2 2 2 2 2 2 2 2 1 1 1 1 1 0
3 3 3 3 2 2 1 1 1 1 1 1 1 1 1 2 2 2 2 2 2 3 2 1 1 1 1 0 1 1 1 2 2 2 2 2 2 2 1 1 1 1 0 0
3 3 3 2 2 1 0 0 1 1 2 2 2 2 2 2 2 2 2 2 2 3 2 1 1 1 1 1 1 1 1 1 1 2 2 2 2 2 1 1 1 0 0 0
3 3 3 2 2 1 1 1 1 1 2 2 2 2 2 2 2 1 1 3 3 3 1 2 2 1 1 1 1 1 1 1 1 1 2 2 1 1 1 1 1 0 0 0
3 3 3 3 3 3 2 2 1 1 1 1 2 2 2 1 2 1 1 2 3 3 2 2 2 2 1 1 1 1 1 1 1 2 2 2 1 1 1 1 1 0 0 0
4 3 3 4 3 2 2 2 2 2 2 1 2 1 1 1 1 1 1 1 2 2 1 1 1 1 1 1 1 1 1 1 1 1 2 1 1 1 1 1 1 0 0 0
3 3 2 2 2 2 2 2 2 2 2 2 2 2 1 1 1 1 1 1 1 1 1 0 0 1 1 1 1 1 1 1 1 1 1 1 1 1 1 1 0 0 0 0
Wind_Direction
279 282 272 268 269 259 244 250 248 265 282 302 335 350 359 10 18 38 39 38 38 37 27 27 39 45 55 56 67 91 102 99 100 94 91 98 108 114 111 113 129 139 134 126
279 267 258 262 271 260 254 258 258 270 286 307 329 17 15 7 19 25 29 33 33 30 22 19 20 24 42 45 42 85 98 100 99 98 98 102 107 112 112 113 110 118 125 126
280 317 324 270 248 241 228 233 245 259 275 335 356 8 3 358 10 15 20 27 27 22 13 11 8 13 21 25 40 84 103 106 106 107 107 106 112 117 123 126 124 128 137 132
289 326 260 240 127 169 215 261 288 286 319 338 339 347 4 11 11 8 14 17 16 19 10 3 6 8 17 28 37 80 99 102 107 112 111 104 105 118 128 125 131 132 138 137
266 274 271 263 316 350 232 285 308 288 312 329 338 335 10 21 18 14 15 14 11 10 1 1 11 16 24 34 40 60 88 100 108 117 120 115 115 121 129 125 117 112 118 128
247 257 257 264 47 15 60 261 328 345 319 323 333 304 304 360 11 7 4 3 5 5 8 12 13 24 28 25 34 38 60 94 101 112 127 134 138 129 125 125 125 118 110 116
240 245 261 270 228 131 187 249 302 335 307 311 299 269 299 340 354 356 353 352 1 9 11 4 4 20 19 22 10 8 38 72 82 90 116 123 114 112 129 129 123 117 108 97
220 234 253 156 132 191 232 299 315 307 291 290 285 297 317 329 334 342 347 351 357 6 359 354 359 18 24 8 0 22 47 64 72 71 83 103 104 95 116 132 128 130 121 111
207 222 243 170 202 246 288 278 295 297 295 278 273 278 298 317 321 329 342 345 350 356 344 343 352 11 19 330 355 25 54 67 71 63 65 90 122 130 133 137 137 140 137 141
251 254 251 242 227 248 257 260 298 302 286 274 265 267 286 296 306 323 337 341 346 344 338 336 346 355 328 312 333 41 87 93 95 92 85 88 100 122 138 157 152 153 152 156
246 265 283 261 241 264 313 312 310 306 290 272 261 268 269 282 295 302 317 328 331 322 319 317 332 344 337 328 6 116 114 100 92 93 94 91 75 81 147 184 176 177 182 178
227 223 215 249 230 348 288 285 288 285 293 287 255 249 259 278 291 306 318 325 325 319 318 320 328 330 330 332 209 161 171 191 167 139 124 121 114 65 53 105 103 132 153 168
218 235 245 266 307 317 297 314 328 303 250 264 263 243 248 281 306 328 329 327 322 320 317 318 321 317 311 301 234 201 202 211 199 177 162 163 164 154 119 59 61 88 126 106
211 211 253 246 258 304 336 327 338 333 299 257 267 286 300 306 316 313 307 307 310 311 309 312 318 312 310 302 218 203 203 212 204 185 172 181 197 188 162 150 136 112 151 161
218 206 209 232 293 319 339 345 336 317 322 321 312 301 298 295 294 300 302 309 322 316 310 313 316 310 316 312 229 207 203 197 184 163 164 177 190 188 172 168 176 199 144 143
193 193 199 218 236 254 256 248 248 262 282 302 308 285 273 276 288 302 310 324 329 314 307 309 303 303 308 282 238 210 200 193 182 159 159 175 186 178 171 174 185 199 200 191
180 207 208 215 226 236 238 240 234 240 254 264 275 290 303 323 329 328 329 333 324 313 304 297 296 306 309 281 221 190 184 185 183 169 178 181 184 185 185 193 196 196 272 270
198 201 197 201 207 224 243 245 235 234 245 249 259 295 305 299 300 312 322 337 342 333 324 320 316 320 308 288 221 183 179 173 171 170 173 176 176 179 179 179 172 181 260 312
198 202 209 212 210 208 225 244 245 238 244 237 220 251 270 276 281 303 328 335 322 314 321 330 326 333 308 276 289 169 166 163 166 166 167 179 177 168 171 161 153 169 185 138
194 195 202 213 204 198 218 236 236 238 244 227 217 256 286 294 303 319 327 313 297 291 308 323 336 339 324 294 308 147 156 161 162 162 160 163 167 174 172 165 168 158 143 133
195 192 195 201 209 211 215 221 218 232 248 217 205 236 266 290 296 298 307 304 307 319 326 324 344 339 331 312 29 119 143 152 157 162 164 167 167 166 164 155 140 130 128 121
191 191 197 197 196 217 221 205 208 217 226 231 232 236 266 290 298 302 286 270 287 311 329 327 332 311 311 25 93 107 121 132 140 142 148 153 150 147 144 130 120 108 100 109
187 191 194 196 197 203 204 215 222 215 219 232 241 242 249 265 272 271 289 295 301 306 327 320 313 315 344 62 92 104 117 124 131 139 147 146 142 143 143 134 128 123 121 24
182 185 189 182 162 168 220 245 233 230 229 240 245 244 243 260 280 271 277 292 299 304 311 299 313 329 352 65 85 95 111 121 125 131 130 126 126 131 136 136 135 137 127 14
180 182 181 178 190 211 219 218 218 228 236 250 259 257 245 236 246 274 288 285 293 309 324 312 318 331 28 78 104 116 123 136 142 133 129 125 125 128 130 133 140 136 107 57
185 193 200 206 208 206 202 204 221 232 231 247 265 262 260 261 253 255 272 273 277 292 310 315 325 342 60 84 93 104 113 119 104 97 108 113 119 127 134 127 117 87 41 356
191 197 199 211 214 202 201 202 211 225 223 225 247 251 252 262 266 267 276 272 274 280 298 320 39 87 96 96 94 90 89 94 102 109 115 120 130 138 143 140 116 86 37 352
Height
1490 1484 1483 1483 1482 1481 1482 1479 1479 1473 1472 1472 1472 1471 1470 1468 1466 1466 1466 1466 1466 1466 1467 1467 1468 1469 1469 1470 1471 1472 1472 1474 1475 1477 1479 1480 1482 1484 1486 1487 1489 1491 1492 1493
1491 1482 1480 1481 1480 1479 1478 1477 1476 1474 1475 1473 1472 1471 1471 1470 1468 1467 1467 1466 1466 1466 1466 1466 1467 1467 1468 1468 1469 1470 1471 1472 1473 1475 1476 1478 1479 1481 1483 1484 1486 1487 1489 1490
1490 1483 1482 1483 1480 1479 1477 1476 1476 1476 1476 1473 1473 1472 1472 1471 1470 1468 1468 1467 1466 1466 1466 1466 1466 1466 1466 1467 1468 1468 1469 1470 1471 1473 1474 1476 1477 1478 1480 1481 1483 1484 1486 1487
1493 1490 1491 1481 1476 1476 1477 1476 1476 1475 1475 1474 1474 1473 1472 1472 1470 1469 1468 1467 1466 1466 1466 1466 1465 1465 1465 1466 1466 1467 1467 1468 1470 1471 1472 1473 1474 1476 1477 1479 1480 1482 1483 1484
1494 1490 1483 1479 1477 1478 1477 1478 1476 1475 1475 1474 1473 1472 1472 1472 1470 1469 1468 1467 1466 1466 1465 1464 1464 1464 1464 1464 1465 1465 1465 1466 1468 1469 1470 1471 1472 1473 1475 1476 1478 1479 1480 1482
1493 1490 1486 1479 1478 1477 1479 1480 1476 1475 1474 1473 1472 1473 1473 1471 1470 1468 1467 1466 1466 1465 1464 1464 1463 1463 1463 1463 1463 1463 1464 1465 1466 1467 1468 1469 1470 1472 1473 1474 1475 1476 1478 1479
1493 1489 1484 1480 1477 1477 1482 1479 1475 1474 1473 1473 1472 1473 1472 1470 1468 1467 1466 1465 1465 1464 1463 1462 1462 1462 1461 1461 1461 1462 1462 1463 1464 1465 1466 1467 1468 1470 1471 1472 1473 1474 1476 1477
1492 1490 1485 1478 1477 1479 1477 1474 1473 1472 1471 1471 1470 1470 1469 1468 1467 1466 1465 1464 1463 1462 1461 1461 1461 1460 1460 1460 1460 1460 1461 1461 1462 1463 1464 1466 1467 1468 1469 1470 1471 1472 1473 1475
1487 1484 1477 1475 1474 1474 1473 1472 1471 1470 1469 1468 1468 1467 1466 1465 1465 1464 1463 1462 1461 1460 1459 1459 1459 1459 1458 1458 1459 1459 1459 1460 1461 1462 1463 1464 1465 1466 1467 1468 1469 1470 1471 1472
1482 1476 1474 1473 1472 1472 1471 1470 1468 1468 1467 1466 1465 1464 1464 1463 1462 1462 1461 1460 1459 1458 1457 1457 1457 1457 1457 1457 1457 1457 1458 1458 1459 1460 1461 1462 1463 1464 1465 1466 1467 1468 1469 1470
1478 1474 1472 1470 1470 1469 1468 1467 1466 1465 1465 1464 1463 1462 1461 1461 1460 1460 1459 1458 1458 1457 1456 1455 1455 1455 1455 1455 1455 1455 1456 1457 1457 1458 1459 1460 1461 1462 1463 1464 1465 1466 1467 1468
1472 1469 1469 1468 1467 1467 1466 1465 1464 1463 1462 1461 1461 1460 1459 1459 1458 1458 1457 1457 1456 1455 1454 1453 1453 1453 1453 1453 1454 1454 1454 1455 1455 1456 1457 1458 1459 1460 1461 1462 1463 1464 1465 1466
1465 1465 1465 1465 1465 1464 1464 1463 1462 1461 1460 1459 1459 1458 1457 1457 1456 1456 1455 1455 1454 1453 1452 1452 1451 1451 1451 1452 1452 1452 1452 1453 1453 1454 1455 1456 1457 1458 1458 1460 1461 1462 1463 1464
1462 1463 1462 1462 1462 1462 1461 1461 1460 1459 1458 1458 1457 1456 1456 1455 1454 1454 1453 1453 1452 1451 1451 1450 1450 1449 1449 1450 1450 1450 1450 1451 1451 1452 1453 1454 1455 1456 1457 1457 1458 1459 1461 1461
1459 1459 1459 1459 1459 1459 1459 1458 1457 1456 1456 1455 1455 1454 1454 1453 1452 1452 1451 1451 1450 1449 1448 1448 1447 1447 1447 1447 1448 1448 1448 1449 1449 1450 1451 1452 1453 1454 1455 1456 1457 1457 1458 1459
1455 1456 1456 1456 1456 1456 1456 1455 1455 1454 1454 1453 1453 1452 1452 1451 1451 1450 1449 1449 1448 1447 1446 1446 1445 1445 1445 1445 1445 1445 1446 1447 1447 1448 1449 1450 1451 1452 1453 1454 1455 1456 1456 1457
1452 1452 1453 1453 1453 1454 1453 1453 1453 1452 1452 1451 1451 1450 1450 1449 1448 1448 1447 1447 1446 1446 1445 1444 1444 1443 1443 1443 1443 1443 1444 1444 1445 1446 1447 1448 1449 1450 1451 1452 1453 1454 1455 1455
1449 1450 1450 1450 1451 1451 1451 1451 1451 1450 1450 1450 1449 1449 1448 1447 1447 1446 1446 1445 1444 1444 1443 1442 1442 1441 1441 1441 1441 1441 1441 1442 1443 1444 1445 1446 1448 1449 1449 1450 1451 1452 1453 1454
1446 1447 1448 1448 1449 1449 1448 1448 1448 1448 1448 1448 1447 1447 1446 1446 1445 1445 1444 1443 1442 1441 1441 1441 1440 1439 1439 1439 1439 1439 1439 1440 1441 1442 1444 1445 1446 1447 1448 1449 1450 1450 1451 1452
1444 1444 1445 1446 1446 1446 1446 1446 1446 1446 1446 1446 1446 1445 1444 1444 1444 1443 1442 1441 1441 1440 1440 1439 1438 1438 1438 1437 1437 1437 1438 1438 1440 1441 1442 1444 1445 1446 1447 1448 1448 1449 1449 1450
1441 1442 1442 1443 1444 1444 1444 1444 1444 1444 1444 1444 1444 1443 1443 1442 1442 1441 1440 1439 1439 1439 1438 1437 1437 1437 1436 1436 1436 1436 1437 1438 1439 1440 1441 1442 1443 1445 1445 1446 1447 1447 1448 1448
1439 1439 1440 1440 1441 1441 1442 1442 1442 1442 1442 1442 1442 1441 1441 1440 1440 1439 1439 1439 1438 1437 1437 1436 1436 1435 1435 1435 1435 1436 1436 1437 1438 1439 1440 1441 1442 1443 1444 1445 1446 1446 1446 1447
1436 1437 1437 1438 1439 1439 1439 1440 1440 1440 1440 1439 1439 1439 1438 1438 1438 1437 1437 1437 1436 1436 1435 1435 1435 1434 1434 1434 1435 1435 1436 1437 1438 1439 1440 1441 1442 1443 1443 1444 1444 1445 1445 1445
1434 1435 1435 1436 1437 1437 1437 1437 1437 1437 1437 1437 1437 1437 1437 1436 1436 1436 1435 1435 1434 1434 1434 1434 1434 1434 1434 1434 1434 1435 1435 1436 1437 1438 1439 1440 1441 1442 1442 1443 1444 1444 1444 1444
1432 1433 1433 1434 1434 1434 1434 1434 1434 1435 1435 1435 1435 1435 1435 1434 1434 1433 1433 1433 1433 1433 1433 1433 1433 1433 1433 1433 1434 1434 1435 1436 1436 1437 1438 1439 1440 1441 1441 1442 1443 1443 1443 1443
1430 1430 1431 1431 1431 1432 1432 1432 1432 1432 1432 1432 1432 1432 1432 1432 1432 1431 1431 1431 1431 1431 1431 1431 1432 1432 1432 1432 1433 1434 1434 1435 1436 1437 1437 1438 1439 1440 1441 1441 1442 1442 1442 1442
1427 1427 1428 1428 1428 1429 1429 1429 1429 1429 1429 1429 1429 1429 1430 1429 1429 1429 1429 1429 1429 1429 1430 1430 1430 1431 1431 1432 1432 1433 1434 1435 1435 1436 1437 1438 1438 1439 1440 1440 1440 1441 1441 1441